logo
Search for airport 
image banner adimage banner adimage banner ad
image banner ad

FMMI - Antananarivo/Ivato

Located in Antananarivo, Madagascar

ICAO - FMMI, IATA - TNR

Data provided by Airmate  

General information

Coordinates: S18°47'47" E47°28'34"
Elevation is 4198 feet MSL.
 
View others Airports in Antananarivo

Operational data

Special qualification required
Current time UTC:
Current local time:
Weather
METAR: FMMI 170630Z 16013KT 120V190 9999 FEW017 BKN020 20/15 Q1025 NOSIG
TAF: TAF FMMI 170500Z 1706/1812 16010KT 9999 FEW017 BKN020 BECMG 1708/1710 10012KT PROB30 TEMPO 1709/1712 4000 RADZ BECMG 1716/1717 16010KT PROB30 TEMPO 1720/1801 4500 DZRA
View NOTAMs / SUP AIP / TFR affecting this airport [VIEW]
Communications frequencies: [VIEW]

Runways:

RWY identifierQFULength (ft)Width (ft)SurfaceLDA (ft)
1199°10171148ASP
29279°10171148ASP

Airport contact information

Address: Antananarivo Madagascar

Satellite view of FMMI